#timestamp,LO_Frequency,Hit,Temp,Hum 
1480086015.3,286046991.7,N,0.0,0.0
1480086035.1,286046994.6,N,0.0,0.0
1480086055.9,286046994.4,N,0.0,0.0
1480086075.7,286046994.2,N,0.0,0.0
1480086095.5,286046994.0,N,0.0,0.0
1480086115.4,286046993.6,N,0.0,0.0
1480086135.2,286046993.9,N,0.0,0.0
1480086155.1,286046994.0,N,0.0,0.0
1480086156.0,286046994.0,N,0.0,0.0
1480086175.8,286046993.4,N,0.0,0.0
1480086195.6,286046993.3,N,0.0,0.0
1480086215.5,286046993.4,N,0.0,0.0
1480086235.3,286046993.6,N,0.0,0.0
1480086255.2,286046993.5,N,0.0,0.0
1480086275.9,286046993.4,N,0.0,0.0
1480086295.7,286046993.7,N,0.0,0.0
1480086315.6,286046993.3,N,0.0,0.0
1480086335.4,286046996.1,N,0.0,0.0
1480086355.2,286046993.4,N,0.0,0.0
1480086375.1,286046993.4,N,0.0,0.0
1480086376.0,286046993.4,N,0.0,0.0
1480086395.8,286046993.7,N,0.0,0.0
1480086415.7,286046993.5,N,0.0,0.0
1480086435.5,286046993.6,N,0.0,0.0
1480086455.3,286046993.8,N,0.0,0.0
1480086475.2,286046993.7,N,0.0,0.0
1480086495.0,286046993.4,N,0.0,0.0
1480086495.9,286046993.4,N,0.0,0.0
1480086515.7,286046996.1,N,0.0,0.0
1480086535.6,286046994.9,N,0.0,0.0
1480086555.4,286046995.4,N,0.0,0.0
1480086575.3,286046997.9,N,0.0,0.0
1480086595.1,286046995.4,N,0.0,0.0
1480086615.8,286046995.6,N,0.0,0.0
1480086635.7,286046996.0,N,0.0,0.0
1480086655.5,286046995.8,N,0.0,0.0
1480086675.4,286046996.1,N,0.0,0.0
1480086695.2,286046995.2,N,0.0,0.0
1480086715.0,286046995.4,N,0.0,0.0
1480086715.9,286046995.4,N,0.0,0.0
1480086735.8,286046995.4,N,0.0,0.0
1480086755.6,286046995.1,N,0.0,0.0
1480086775.4,286046997.6,N,0.0,0.0
1480086795.3,286046997.6,N,0.0,0.0
1480086815.1,286046994.9,N,0.0,0.0
1480086835.9,286046997.8,N,0.0,0.0
1480086855.7,286046995.4,N,0.0,0.0
1480086875.5,286046996.6,N,0.0,0.0
1480086895.4,286046998.3,N,0.0,0.0
1480086915.2,286046998.1,N,0.0,0.0
1480086935.1,286047000.9,N,0.0,0.0
1480086936.0,286047000.9,N,0.0,0.0
1480086955.8,286047001.1,N,0.0,0.0
1480086975.6,286047000.5,N,0.0,0.0
1480086995.5,286047000.5,N,0.0,0.0
1480087015.3,286047000.1,N,0.0,0.0
1480087035.1,286047000.5,N,0.0,0.0
1480087055.9,286047000.5,N,0.0,0.0
1480087075.7,286047000.1,N,0.0,0.0
1480087095.6,286046999.9,N,0.0,0.0
1480087115.4,286047002.8,N,0.0,0.0
1480087135.2,286047002.2,N,0.0,0.0
1480087155.1,286047001.7,N,0.0,0.0
1480087156.0,286047001.7,N,0.0,0.0
1480087175.8,286047002.3,N,0.0,0.0
1480087195.7,286047002.8,N,0.0,0.0
1480087215.5,286047000.1,N,0.0,0.0
1480087235.3,286047000.3,N,0.0,0.0
1480087255.2,286047000.5,N,0.0,0.0
1480087275.9,286047000.1,N,0.0,0.0
1480087295.7,286047002.8,N,0.0,0.0
1480087315.6,286047000.3,N,0.0,0.0
1480087335.4,286047000.8,N,0.0,0.0
1480087355.3,286046998.1,N,0.0,0.0
1480087375.1,286046998.9,N,0.0,0.0
1480087376.0,286046998.9,N,0.0,0.0
1480087395.8,286046998.4,N,0.0,0.0
1480087415.7,286046998.1,N,0.0,0.0
1480087435.5,286046998.2,N,0.0,0.0
1480087455.3,286046998.6,N,0.0,0.0
1480087475.2,286046998.6,N,0.0,0.0
1480087495.0,286046998.6,N,0.0,0.0
1480087495.9,286046998.6,N,0.0,0.0
1480087515.8,286046999.7,N,0.0,0.0
1480087535.6,286047000.4,N,0.0,0.0
1480087555.4,286047002.2,N,0.0,0.0
1480087575.3,286047002.0,N,0.0,0.0
1480087595.1,286047001.6,N,0.0,0.0
1480087615.9,286047002.8,N,0.0,0.0
1480087635.7,286047000.0,N,0.0,0.0
1480087655.5,286046999.8,N,0.0,0.0
1480087675.4,286047001.0,N,0.0,0.0
1480087695.2,286047000.5,N,0.0,0.0
1480087715.1,286047000.7,N,0.0,0.0
1480087716.0,286047000.7,N,0.0,0.0
1480087735.8,286047001.1,N,0.0,0.0
1480087755.6,286046998.5,N,0.0,0.0
1480087775.5,286046998.7,N,0.0,0.0
1480087795.3,286046996.5,N,0.0,0.0
1480087815.1,286046997.3,N,0.0,0.0
1480087835.9,286046996.8,N,0.0,0.0
1480087855.7,286046998.7,N,0.0,0.0
1480087875.6,286046998.9,N,0.0,0.0
1480087895.4,286046998.7,N,0.0,0.0
1480087915.2,286046999.4,N,0.0,0.0
1480087935.1,286046999.6,N,0.0,0.0
1480087936.0,286046999.6,N,0.0,0.0
1480087955.8,286046999.4,N,0.0,0.0
1480087975.7,286046998.2,N,0.0,0.0
1480087995.5,286046998.1,N,0.0,0.0
1480088015.3,286047001.1,N,0.0,0.0
1480088035.2,286047000.8,N,0.0,0.0
1480088055.0,286047001.0,N,0.0,0.0
1480088055.9,286047001.0,N,0.0,0.0
1480088075.7,286047000.9,N,0.0,0.0
1480088095.6,286047000.6,N,0.0,0.0
1480088115.4,286047000.6,N,0.0,0.0
1480088135.3,286047000.4,N,0.0,0.0
1480088155.1,286046999.9,N,0.0,0.0
1480088156.0,286046999.9,N,0.0,0.0
1480088175.8,286046999.8,N,0.0,0.0
1480088195.7,286047000.1,N,0.0,0.0
1480088215.5,286047000.3,N,0.0,0.0
1480088235.4,286047000.2,N,0.0,0.0
1480088255.2,286047002.0,N,0.0,0.0
1480088275.0,286047001.7,N,0.0,0.0
1480088275.9,286047001.7,N,0.0,0.0
1480088295.8,286047003.8,N,0.0,0.0
1480088315.6,286047005.6,N,0.0,0.0
1480088335.4,286047006.0,N,0.0,0.0
1480088355.3,286047003.4,N,0.0,0.0
1480088375.1,286047002.9,N,0.0,0.0
1480088395.9,286047004.8,N,0.0,0.0
1480088415.7,286047005.5,N,0.0,0.0
1480088435.5,286047003.4,N,0.0,0.0
1480088455.4,286047002.9,N,0.0,0.0
1480088475.2,286047006.0,N,0.0,0.0
1480088495.1,286047003.0,N,0.0,0.0
1480088496.0,286047003.0,N,0.0,0.0
1480088515.8,286047005.5,N,0.0,0.0
1480088535.6,286047003.0,N,0.0,0.0
1480088555.5,286047003.6,N,0.0,0.0
1480088575.3,286047003.4,N,0.0,0.0
1480088595.1,286047003.0,N,0.0,0.0
1480088615.9,286047003.1,N,0.0,0.0
1480088635.7,286047003.4,N,0.0,0.0
1480088655.6,286047006.0,N,0.0,0.0
1480088675.4,286047003.4,N,0.0,0.0
1480088695.2,286047005.3,N,0.0,0.0
1480088715.1,286047005.1,N,0.0,0.0
1480088716.0,286047005.1,N,0.0,0.0
1480088735.8,286047002.9,N,0.0,0.0
1480088755.6,286047005.5,N,0.0,0.0
1480088775.5,286047007.1,N,0.0,0.0
1480088795.3,286047008.6,N,0.0,0.0
1480088815.2,286047007.9,N,0.0,0.0
1480088835.9,286047007.8,N,0.0,0.0
1480088855.7,286047009.7,N,0.0,0.0
1480088875.6,286047009.7,N,0.0,0.0
1480088895.4,286047012.4,N,0.0,0.0
1480088915.3,286047009.4,N,0.0,0.0
1480088935.1,286047012.0,N,0.0,0.0
1480088936.0,286047012.0,N,0.0,0.0
1480088955.8,286047013.5,N,0.0,0.0
1480088975.7,286047015.6,N,0.0,0.0
1480088995.5,286047014.5,N,0.0,0.0
1480089015.3,286047016.4,N,0.0,0.0
1480089035.2,286047018.0,N,0.0,0.0
1480089055.0,286047019.6,N,0.0,0.0
1480089055.9,286047019.6,N,0.0,0.0
1480089075.8,286047021.6,N,0.0,0.0
1480089095.6,286047021.3,N,0.0,0.0
1480089115.4,286047019.2,N,0.0,0.0
1480089135.3,286047019.8,N,0.0,0.0
1480089155.1,286047017.9,N,0.0,0.0
1480089175.9,286047019.9,N,0.0,0.0
1480089195.7,286047020.0,N,0.0,0.0
1480089215.5,286047018.8,N,0.0,0.0
1480089235.4,286047018.7,N,0.0,0.0
1480089255.2,286047016.2,N,0.0,0.0
1480089275.0,286047016.1,N,0.0,0.0
1480089275.9,286047016.1,N,0.0,0.0
1480089295.8,286047016.4,N,0.0,0.0
1480089315.6,286047015.8,N,0.0,0.0
1480089335.5,286047016.0,N,0.0,0.0
1480089355.3,286047016.6,N,0.0,0.0
1480089375.1,286047014.2,N,0.0,0.0
1480089395.9,286047016.9,N,0.0,0.0
1480089415.7,286047016.4,N,0.0,0.0
1480089435.5,286047017.0,N,0.0,0.0
1480089455.4,286047017.1,N,0.0,0.0
1480089475.2,286047018.5,N,0.0,0.0
1480089495.1,286047020.0,N,0.0,0.0
1480089496.0,286047020.0,N,0.0,0.0
1480089515.8,286047018.3,N,0.0,0.0
1480089535.6,286047016.1,N,0.0,0.0
1480089555.5,286047016.8,N,0.0,0.0
1480089575.3,286047015.9,N,0.0,0.0
1480089595.2,286047014.8,N,0.0,0.0
